Regional Weather Roundup
Issued by NWS Upton, NY

Current Version | Previous Version | Graphics & Text | Print | Product List | Glossary Off
Versions: 1 2 3 4 5 6 7 8 9 10 11 12 13 14 15 16 17 18 19 20 21 22 23 24 25 26 27 28 29 30 31 32 33 34 35 36 37 38 39 40 41 42 43 44 45 46 47 48 49 50

000
ASUS41 KOKX 241918
RWROKX

REGIONAL WEATHER ROUNDUP
NATIONAL WEATHER SERVICE NEW YORK NY
300 PM EDT SUN MAY 24 2015

NOTE: "FAIR" INDICATES FEW OR NO CLOUDS BELOW 12,000 FEET WITH NO
SIGNIFICANT WEATHER AND/OR OBSTRUCTIONS TO VISIBILITY.

NYZ071-072-176-178-NJZ106-104-242000-
NEW YORK CITY METRO AREA


CITY           SKY/WX    TMP DP  RH WIND       PRES   REMARKS
CENTRAL PARK   PTSUNNY   81  41  24 CALM      30.29F
LAGUARDIA APRT PTSUNNY   79  45  29 S16G24    30.25F
KENNEDY INTL   PTSUNNY   72  52  49 S21       30.29F
NEWARK/LIBERTY PTSUNNY   81  37  20 SW12G20   30.26F
BRNX BOT. GARD   N/A     79  37  22 SW13      30.28S
TETERBORO      MOSUNNY   83  37  19 W9G18     30.25F
$$

NYZ177-179-078>081-242000-
LONG ISLAND NEW YORK

CITY           SKY/WX    TMP DP  RH WIND       PRES   REMARKS
FARMINGDALE    PTSUNNY   69  53  56 SW14      30.30F
ISLIP          CLOUDY    69  52  54 SW15      30.28F
SHIRLEY        CLOUDY    69  51  52 SW12      30.31S
WESTHAMPTON    CLOUDY    65  50  58 SW18G29   30.31F
MONTAUK POINT    N/A     67  50  54 SW12G25   30.29F
$$

NYZ052-065-067-242000-
HUDSON VALLEY

CITY           SKY/WX    TMP DP  RH WIND       PRES   REMARKS
WHITE PLAINS   PTSUNNY   76  36  23 SW8       30.26F
NEWBURGH       NOT AVBL
MONTGOMERY     PTSUNNY   80  39  23 W9        30.24F
POUGHKEEPSIE   MOSUNNY   79  37  22 SW9       30.22F
ALBANY         PTSUNNY   81  40  23 W14G21    30.20F
$$

NJZ001-105-106-008-010-013-015-019>022-104-242000-
NEW JERSEY

CITY           SKY/WX    TMP DP  RH WIND       PRES   REMARKS
NEWARK/LIBERTY PTSUNNY   81  37  20 SW12G20   30.26F
TETERBORO      MOSUNNY   83  37  19 W9G18     30.25F
CALDWELL       MOSUNNY   80  35  19 VRB6      30.26F
MORRISTOWN     PTSUNNY   79  39  24 SW5G20    30.27F
SOMERVILLE     SUNNY     80  38  22 VRB6      30.25F
SUSSEX         PTSUNNY   79  37  22 SW8G17    30.26F
ANDOVER          N/A     77  40  26 VRB7      30.27F
TRENTON        MOSUNNY   80  43  26 VRB7G16   30.28F
MILLVILLE      MOSUNNY   75  54  47 SE10      30.31F
ATLANTIC CITY  MOSUNNY   73  47  39 S14G22    30.32F
WRIGHTSTOWN    MOSUNNY   79  51  36 W14       30.27F
TOMS RIVER     PTSUNNY  N/A N/A N/A SW16G22   30.29S
BELMAR         MOSUNNY   79  48  34 SW9G17    30.29F
$$

PAZ047>061-062-071-242000-
EASTERN PENNSYLVANIA

CITY           SKY/WX    TMP DP  RH WIND       PRES   REMARKS
PHILADELPHIA   MOSUNNY   78  49  35 W13       30.30F
ALLENTOWN      SUNNY     81  40  23 SW14G20   30.28F
SCRANTON       MOSUNNY   79  35  20 SW8       30.26F
$$

CTZ002-004>006-009-010-012-RIZ004-006-007-MAZ004-011-015-242000-
SOUTHERN NEW ENGLAND
 IN CT

CITY           SKY/WX    TMP DP  RH WIND       PRES   REMARKS
BRADLEY INTL   PTSUNNY   83  38  20 SW15G22   30.19F
HARTFORD       PTSUNNY   80  35  19 S8G22     30.21F
DANBURY        PTSUNNY   76  37  24 SW10G18   30.27F
WTRBRY/OXFORD  PTSUNNY   77  41  27 SW9       30.27F
BRIDGEPORT     PTSUNNY   77  42  28 SW13      30.26F
MERIDEN        PTSUNNY   78  36  21 W7        30.23F
NEW HAVEN      PTSUNNY   72  42  34 SW10G18   30.26F
CHESTER        FAIR      73  37  27 SW12G17   30.26S
GROTON         PTSUNNY   64  52  64 S8        30.26F
WILLIMANTIC    MOSUNNY   80  36  20 SW12      30.22F

 IN RI

CITY           SKY/WX    TMP DP  RH WIND       PRES   REMARKS
PROVIDENCE     MOSUNNY   80  35  19 SW17G25   30.21F
BLOCK ISLAND   MOSUNNY   61  48  63 SW20G26   30.29S
WESTERLY       MOSUNNY   70  52  52 SW8       30.26F

 IN MA

CITY           SKY/WX    TMP DP  RH WIND       PRES   REMARKS
BOSTON         MOSUNNY   82  37  20 W16G25    30.16F
WORCESTER      SUNNY     77  36  22 W13G23    30.21F
WESTFIELD      MOSUNNY   83  35  18 W14G22    30.20F
PROVINCETOWN   SUNNY     68  48  49 SW21G29   30.19F
NANTUCKET      SUNNY     62  52  69 SW25      30.27F
$$

ANZ330-335-338-340-345-350-353-355-242000-
COASTAL MARINE OBSERVATIONS


STATION/POSITION TIME  SKY/WX   TEMP    WIND        PRES    VSBY  WAVE
                                AIR SEA DIR/SP/G                  HT/PER
                 (UTC)          (F)     (DEG/KT/KT) (MB)    (MI)  (FT/S)
NY HARB ENTRANCE 1850            59 56  190/ 14/ 16 1025.7          2/ 4
4S FIRE IS       1803               54                N/A           3/ 4
20S FIRE ISLAND  1850            58 56  210/ 14/ 16 1026.5          2/ 3
GREAT SOUTH BAY  1800            60 63  250/ 14/ 19   N/A
23SW MTP         1850            56 53  230/ 17/ 19 1025.6          3/ 5
HUDSON CANYON    NOT AVBL
KINGS POINT      1800            72 56  250/  6/ 12 1024.6
CENTRAL LI SOUND 1830            59 53  200/  6/  8   N/A
EASTERN LI SOUND 1800            58     180/  8/ 12   N/A
ROBBINS REEF     1800            69     160/ 13/ 14 1024.3
$$


>>>>>>>>>>>>>>>>>>>>>>>>>>>> KEY <<<<<<<<<<<<<<<<<<<<<<<<<<<
>                                                          <
>     SKY/WX - SKY CONDITION/PRESENT WEATHER               <
>     TMP    - TEMPERATURE IN FAHRENHEIT                   <
>     DP     - DEWPOINT IN FAHRENHEIT                      <
>     RH     - RELATIVE HUMIDITY IN PERCENT                <
>     WIND   - DIRECTION AND SPEED IN MPH                  <
>     PRES   - MEAN SEA LEVEL PRESSURE IN INCHES OF HG     <
>     WCI    - WIND CHILL INDEX                            <
>     VSB    - VISIBILITY IN MILES                         <
>     HX     - HEAT INDEX                                  <
>     TC     - TEMPERATURE IN CELSIUS                      <
>     VRB    - VARIABLE WIND DIRECTION                     <
>                                                          <
>>>>>>>>>>>>>>>>>>>>>>>>>>>> KEY <<<<<<<<<<<<<<<<<<<<<<<<<<<





USA.gov is the U.S. government's official web portal to all federal, state and local government web resources and services.